Satellite: INMARSAT 3-F1
Catalog number: 23839
Epoch time:      103011.71239413
Element set:     848 
Inclination:        0.0473 deg
RA of node:        12.4211 deg
Eccentricity:    0.0003638
Arg of perigee:   290.5876 deg
Mean anomaly:     128.1003 deg
Mean motion:    1.00272520 rev/day
Decay rate:    3.3000E-007 rev/day^2
Epoch rev:            2483
Checksum:              240

Satellite: ASTRA 1F
Catalog number: 23842
Epoch time:      102364.00000000
Element set:     555 
Inclination:        0.0122 deg
RA of node:       319.8851 deg
Eccentricity:    0.0002995
Arg of perigee:    65.1991 deg
Mean anomaly:      92.4014 deg
Mean motion:    1.00273184 rev/day
Decay rate:    1.2799E-006 rev/day^2
Epoch rev:            2461
Checksum:              248

Satellite: JAS 2
Catalog number: 24278
Epoch time:      103012.93309748
Element set:     562 
Inclination:       98.5293 deg
RA of node:       169.1350 deg
Eccentricity:    0.0350290
Arg of perigee:   311.5896 deg
Mean anomaly:      45.5704 deg
Mean motion:   13.52868358 rev/day
Decay rate:   -9.9999E-009 rev/day^2
Epoch rev:           31635
Checksum:              354

Satellite: UNAMSAT
Catalog number: 24305
Epoch time:      103012.84428602
Element set:     668 
Inclination:       82.9302 deg
RA of node:       289.9356 deg
Eccentricity:    0.0030327
Arg of perigee:   309.7757 deg
Mean anomaly:      50.0718 deg
Mean motion:   13.73447748 rev/day
Decay rate:    2.0499E-006 rev/day^2
Epoch rev:           31844
Checksum:              320

Satellite: INMARSAT 3-F2
Catalog number: 24307
Epoch time:      103012.98737270
Element set:     70 
Inclination:        0.0552 deg
RA of node:         5.5545 deg
Eccentricity:    0.0004747
Arg of perigee:   290.4543 deg
Mean anomaly:     155.9786 deg
Mean motion:    1.00272725 rev/day
Decay rate:   -1.0400E-006 rev/day^2
Epoch rev:            2325
Checksum:              370

Satellite: HOT BIRD 2
Catalog number: 24665
Epoch time:      102364.09542247
Element set:     337 
Inclination:        0.0380 deg
RA of node:       203.9859 deg
Eccentricity:    0.0010678
Arg of perigee:    49.4036 deg
Mean anomaly:     252.3771 deg
Mean motion:    1.00274592 rev/day
Decay rate:    9.5999E-007 rev/day^2
Epoch rev:            2275
Checksum:              310

Satellite: INMARSAT 3-F3
Catalog number: 24674
Epoch time:      103011.24401554
Element set:     967 
Inclination:        0.0567 deg
RA of node:         7.1162 deg
Eccentricity:    0.0004073
Arg of perigee:   270.4136 deg
Mean anomaly:      98.8116 deg
Mean motion:    1.00275517 rev/day
Decay rate:    5.5999E-007 rev/day^2
Epoch rev:            2220
Checksum:              274

Satellite: GOES 10
Catalog number: 24786
Epoch time:      103013.36628213
Element set:     500 
Inclination:        0.0511 deg
RA of node:       112.4014 deg
Eccentricity:    0.0003104
Arg of perigee:   206.6941 deg
Mean anomaly:     149.9641 deg
Mean motion:    1.00279596 rev/day
Decay rate:    1.0700E-006 rev/day^2
Epoch rev:            2097
Checksum:              241

Satellite: INMARSAT 3-F4
Catalog number: 24819
Epoch time:      103010.36293387
Element set:     864 
Inclination:        0.0114 deg
RA of node:       301.8125 deg
Eccentricity:    0.0003708
Arg of perigee:   346.8148 deg
Mean anomaly:     257.4302 deg
Mean motion:    1.00267148 rev/day
Decay rate:   -2.7300E-006 rev/day^2
Epoch rev:            2061
Checksum:              262

Satellite: FENGYUN 2A
Catalog number: 24834
Epoch time:      103008.98957809
Element set:     942 
Inclination:        2.4721 deg
RA of node:        88.7751 deg
Eccentricity:    0.0002867
Arg of perigee:   256.9049 deg
Mean anomaly:     204.9633 deg
Mean motion:    1.00265824 rev/day
Decay rate:   -1.8800E-006 rev/day^2
Epoch rev:            2043
Checksum:              311

Satellite: HOT BIRD 3
Catalog number: 24931
Epoch time:      102364.09542247
Element set:     418 
Inclination:        0.0070 deg
RA of node:       329.5839 deg
Eccentricity:    0.0008855
Arg of perigee:   285.9646 deg
Mean anomaly:     250.1886 deg
Mean motion:    1.00273530 rev/day
Decay rate:    9.5000E-007 rev/day^2
Epoch rev:            1957
Checksum:              298

Satellite: METEOSAT 7
Catalog number: 24932
Epoch time:      103013.20133103
Element set:     226 
Inclination:        0.1322 deg
RA of node:        40.9545 deg
Eccentricity:    0.0001236
Arg of perigee:   223.2714 deg
Mean anomaly:     280.4269 deg
Mean motion:    1.00272822 rev/day
Decay rate:    1.5000E-007 rev/day^2
Epoch rev:            1965
Checksum:              223

Satellite: ASTRA 1G
Catalog number: 25071
Epoch time:      102364.00000000
Element set:     386 
Inclination:        0.0122 deg
RA of node:       319.8851 deg
Eccentricity:    0.0002995
Arg of perigee:    65.1991 deg
Mean anomaly:      92.3633 deg
Mean motion:    1.00273184 rev/day
Decay rate:    1.2799E-006 rev/day^2
Epoch rev:            1863
Checksum:              257

Satellite: INMARSAT 3-F5
Catalog number: 25153
Epoch time:      103013.01553821
Element set:     830 
Inclination:        0.4466 deg
RA of node:       359.3187 deg
Eccentricity:    0.0003647
Arg of perigee:   269.6957 deg
Mean anomaly:     233.6364 deg
Mean motion:    1.00274965 rev/day
Decay rate:    1.6100E-006 rev/day^2
Epoch rev:            1813
Checksum:              285

Satellite: HOT BIRD 4
Catalog number: 25237
Epoch time:      102364.09542247
Element set:     323 
Inclination:        0.0611 deg
RA of node:       171.7992 deg
Eccentricity:    0.0008910
Arg of perigee:    46.8775 deg
Mean anomaly:     287.0610 deg
Mean motion:    1.00272623 rev/day
Decay rate:    9.5000E-007 rev/day^2
Epoch rev:            1803
Checksum:              267

Satellite: NOAA 15
Catalog number: 25338
Epoch time:      103012.99648301
Element set:     967 
Inclination:       98.5510 deg
RA of node:        36.1370 deg
Eccentricity:    0.0011370
Arg of perigee:    65.6940 deg
Mean anomaly:     294.5425 deg
Mean motion:   14.24225893 rev/day
Decay rate:    1.8399E-006 rev/day^2
Epoch rev:           24259
Checksum:              322

Satellite: RESURS O1-N4
Catalog number: 25394
Epoch time:      103013.23558339
Element set:     422 
Inclination:       98.6363 deg
RA of node:        91.8238 deg
Eccentricity:    0.0001141
Arg of perigee:   179.4436 deg
Mean anomaly:     180.6743 deg
Mean motion:   14.23862835 rev/day
Decay rate:    1.8099E-006 rev/day^2
Epoch rev:           23436
Checksum:              320

Satellite: TMSAT
Catalog number: 25396
Epoch time:      103012.91533154
Element set:     947 
Inclination:       98.6332 deg
RA of node:        90.7324 deg
Eccentricity:    0.0002177
Arg of perigee:   206.1360 deg
Mean anomaly:     153.9715 deg
Mean motion:   14.23497383 rev/day
Decay rate:   -4.3000E-007 rev/day^2
Epoch rev:           23431
Checksum:              285

Satellite: TECHSAT 1B
Catalog number: 25397
Epoch time:      103012.92293863
Element set:     111 
Inclination:       98.6280 deg
RA of node:        89.6651 deg
Eccentricity:    0.0000468
Arg of perigee:   225.6066 deg
Mean anomaly:     134.5072 deg
Mean motion:   14.22950128 rev/day
Decay rate:    8.2000E-007 rev/day^2
Epoch rev:           23428
Checksum:              409

Satellite: ASTRA 2A
Catalog number: 25462
Epoch time:      102364.00000000
Element set:     527 
Inclination:        0.0385 deg
RA of node:       308.7109 deg
Eccentricity:    0.0004824
Arg of perigee:   280.8620 deg
Mean anomaly:     256.9180 deg
Mean motion:    1.00272094 rev/day
Decay rate:    1.5800E-006 rev/day^2
Epoch rev:            1593
Checksum:              241

Satellite: EUTELSAT W2
Catalog number: 25491
Epoch time:      103012.86124057
Element set:     561 
Inclination:        0.0508 deg
RA of node:       109.3812 deg
Eccentricity:    0.0003700
Arg of perigee:   183.4770 deg
Mean anomaly:     145.1010 deg
Mean motion:    1.00274064 rev/day
Decay rate:    1.2299E-006 rev/day^2
Epoch rev:            1568
Checksum:              245

Satellite: HOT BIRD 5
Catalog number: 25495
Epoch time:      103011.93490742
Element set:     492 
Inclination:        0.0624 deg
RA of node:       143.7977 deg
Eccentricity:    0.0004180
Arg of perigee:   135.8889 deg
Mean anomaly:     201.0357 deg
Mean motion:    1.00276078 rev/day
Decay rate:    1.7300E-006 rev/day^2
Epoch rev:            1564
Checksum:              284

Satellite: SEDSAT 1
Catalog number: 25509
Epoch time:      103012.37424531
Element set:     755 
Inclination:       31.4348 deg
RA of node:         3.2051 deg
Eccentricity:    0.0357717
Arg of perigee:   338.0604 deg
Mean anomaly:      20.5049 deg
Mean motion:   14.27361708 rev/day
Decay rate:    1.5089E-005 rev/day^2
Epoch rev:           21999
Checksum:              286

Satellite: PAN SAT
Catalog number: 25520
Epoch time:      103012.63943930
Element set:     628 
Inclination:       28.4604 deg
RA of node:       109.7947 deg
Eccentricity:    0.0005438
Arg of perigee:   311.5923 deg
Mean anomaly:      48.4223 deg
Mean motion:   15.13676736 rev/day
Decay rate:    3.3960E-005 rev/day^2
Epoch rev:           23198
Checksum:              304

Satellite: ISS (ZARYA)
Catalog number: 25544
Epoch time:      103013.51808117
Element set:     577 
Inclination:       51.6343 deg
RA of node:        77.1889 deg
Eccentricity:    0.0005175
Arg of perigee:    29.8443 deg
Mean anomaly:     112.1664 deg
Mean motion:   15.59011955 rev/day
Decay rate:    3.0800E-004 rev/day^2
Epoch rev:           23687
Checksum:              406

